Location: Crocus Hill
(18.2167°N, 63.0667°W)
Time: 14:57:04
(UTC+00:00)

Okean O Rocket - Pass Details

Date: 26 January 2020
Orbit: 622 x 645 km, 98.2° (Epoch: 26 February)

Event Time Altitude Azimuth Distance (km) Brightness Sun altitude
Rises 10:04:12 0° 1° (N) 2,934 4.9 -10.4°
Reaches altitude 10° 10:06:30 10° 353° (N) 2,021 4.0 -9.9°
Maximum altitude 10:10:37 40° 284° (WNW) 937 2.0 -9.0°
Drops below altitude 10° 10:14:41 10° 215° (SW) 2,003 4.0 -8.0°
Sets 10:16:58 0° 208° (SSW) 2,905 4.9 -7.5°
